sat.trackr.live / text

‹ back to catalog

ONEWEB-0556

NORAD 55798 · 2023-029C

PAYLOAD ACTIVE UNKNOWN

§ Identity

Operator
Country
UK
Launch date
2023-03-09
Launch site
AFETR
Launch vehicle
Mass (kg)
RCS (m²)

Purposes: comms

External: N2YO · Heavens-Above · Gunter

§ Orbital elements

Epoch: 2026-09-19T22:22:38.555616Z

Period
109.03 min
Inclination
87.9137°
Eccentricity
0.0002824
Mean motion
13.20772272 rev/d
Perigee alt
1,179.6 km
Apogee alt
1,183.9 km
Semi-major
7,559.9 km
B*
3.0097e-4
RAAN
255.5582°
Arg perigee
83.8496°
Mean anomaly
276.2959°
Rev number
17,365

§ Raw data

ONEWEB-05561 55798U 23029C   26262.93239069  .00000135  00000+0  30097-3 0  99992 55798  87.9137 255.5582 0002824  83.8496 276.2959 13.20772272173652

JSON: /api/v1/satellites/55798 · /tle

For live sub-satellite position, see the globe view (requires WebGL).

§ Visibility from observer

Set your observer location to see the next 7 days of passes ≥ 10°. The values pass through the URL so the page stays shareable.

No JS? Fill the form by hand. The geolocation button needs JavaScript.